Wind_Speed
56 57 56 53 55 59 61 63 62 62 57 53 48 52 53 50 56 62 66 67 63 65 63 58 66 40 52 54 67 60 60 53 53 55 49 43 47 44 39 39 42 35 34 33
54 55 52 54 56 55 57 61 61 62 54 52 46 46 52 47 51 55 61 65 66 67 67 71 65 39 30 36 41 54 59 47 51 61 55 47 34 27 37 41 41 36 33 31
51 50 50 53 54 53 53 55 56 58 54 54 51 50 47 38 42 51 54 57 62 65 66 71 71 57 55 53 45 44 37 38 53 53 57 49 43 41 43 26 25 28 31 35
43 46 47 48 50 50 49 48 51 52 53 52 50 51 48 43 41 38 44 54 56 58 60 62 54 60 55 60 63 55 75 46 44 51 50 49 45 28 21 23 24 25 26 29
36 40 40 44 44 44 43 45 46 48 50 52 50 52 45 45 48 46 42 46 54 59 61 60 59 58 61 59 60 57 53 52 34 46 54 54 22 12 19 21 19 25 29 32
32 34 36 37 41 44 45 45 43 41 43 50 48 51 50 45 43 44 47 45 53 59 59 60 60 62 63 59 52 55 55 47 50 33 24 16 12 22 25 24 27 25 28 34
30 31 33 34 36 40 43 44 43 41 42 45 42 48 50 46 43 44 45 48 50 56 59 57 55 56 55 60 50 44 48 38 29 23 13 13 27 27 24 20 23 27 34 38
25 29 33 33 35 37 40 43 44 43 41 38 42 46 40 39 41 44 47 47 48 51 50 47 52 51 49 50 48 49 52 51 21 19 13 14 17 21 22 21 27 36 39 42
12 28 32 37 38 40 40 39 39 40 43 41 39 36 36 39 43 45 45 46 51 48 41 41 45 43 35 33 49 46 37 47 26 25 17 19 22 19 23 20 33 39 41 38
19 28 33 30 39 40 40 42 45 43 41 37 35 37 35 32 34 42 43 46 50 44 46 47 47 47 31 28 32 35 41 48 47 22 21 28 28 22 30 31 36 37 39 40
12 14 22 29 30 33 43 41 41 40 39 39 34 35 23 31 35 39 38 38 49 48 40 45 37 45 42 29 23 25 25 35 32 25 24 31 34 33 34 35 36 39 41 40
6 14 19 23 18 33 33 31 34 34 31 34 31 24 27 39 38 43 34 34 36 41 38 29 24 21 28 34 31 27 23 22 21 21 26 28 31 32 32 36 38 41 39 40
7 9 17 22 32 35 34 29 25 22 25 32 23 23 26 32 32 44 38 36 34 35 33 25 23 21 25 27 29 31 31 21 23 26 31 30 32 36 35 35 39 39 39 39
6 7 18 23 24 31 28 22 22 25 20 19 23 15 20 25 38 39 38 26 21 20 26 28 23 21 22 25 16 16 22 27 28 29 30 30 32 35 35 37 39 38 35 36
9 9 18 21 29 35 34 28 22 26 24 27 20 21 21 37 35 37 31 30 32 33 28 27 26 30 32 28 22 24 27 28 32 30 27 31 38 38 40 34 30 31 34 36
14 11 14 20 22 30 31 30 32 25 28 30 23 26 23 23 28 34 35 32 34 33 32 31 28 31 36 35 33 31 30 29 28 27 21 27 28 36 28 24 28 32 35 35
15 11 13 23 27 29 28 29 32 32 33 34 29 30 27 34 29 30 34 35 35 32 28 26 26 28 35 31 32 33 35 34 33 32 27 35 27 23 25 28 31 32 32 32
12 13 16 25 30 29 22 28 34 30 32 29 34 44 35 27 28 31 28 28 29 31 29 25 26 27 29 32 33 33 36 37 33 32 33 36 26 29 24 29 31 27 26 29
10 15 18 23 26 23 21 23 32 37 35 24 11 31 42 34 26 29 24 27 33 33 31 27 28 29 31 36 38 36 34 35 38 38 38 31 22 25 27 26 27 28 30 33
12 14 15 18 23 23 23 24 26 30 39 26 24 16 18 13 13 15 18 24 20 19 12 20 25 26 30 35 33 34 37 39 44 41 33 28 27 28 30 28 27 30 33 33
13 17 24 25 22 23 26 24 23 26 25 22 17 13 12 9 12 7 5 7 13 16 14 15 16 19 22 23 28 29 31 34 35 34 27 27 24 24 26 28 31 31 32 33
15 15 24 17 18 25 34 31 29 24 21 22 16 22 11 8 12 10 9 6 7 8 9 5 7 9 14 19 20 18 21 20 25 23 23 20 18 20 24 25 27 29 32 32
20 21 21 15 16 26 30 36 29 27 23 21 16 14 15 10 14 17 17 14 10 7 7 7 9 10 10 7 2 31 22 12 16 16 17 17 20 22 24 26 28 31 33 33
22 22 21 17 16 19 17 41 37 30 28 28 24 21 17 11 9 12 12 12 11 9 8 9 9 9 10 8 7 10 11 13 13 14 17 19 21 24 26 29 30 32 33 35
27 26 22 22 19 22 17 17 39 35 38 38 19 13 15 13 13 14 13 12 12 11 12 12 10 11 11 11 13 13 14 16 16 18 20 22 24 26 28 28 32 33 35 38
25 29 33 20 22 19 20 20 25 38 25 23 19 18 13 14 14 14 13 13 12 13 15 16 15 17 16 17 18 20 21 22 23 23 25 25 27 27 28 31 32 35 38 41
Wind_Direction
207 204 203 209 206 207 206 207 208 207 210 209 211 213 213 216 216 219 226 229 234 234 234 245 239 216 211 213 206 215 224 221 227 228 233 222 217 224 235 248 250 254 261 263
201 199 196 202 203 206 206 205 208 208 211 209 207 216 213 213 219 220 226 231 234 234 237 239 239 256 260 263 271 256 240 224 236 235 230 217 214 225 228 234 243 243 255 266
198 190 194 199 201 202 205 205 207 209 211 211 210 209 210 208 220 222 226 233 237 242 239 242 244 246 257 261 271 257 224 226 229 228 239 216 212 224 237 246 254 277 284 279
187 188 190 195 199 200 201 204 207 210 211 213 211 213 214 216 219 222 228 232 241 247 249 246 249 247 248 252 256 267 250 249 222 220 222 226 219 215 239 255 260 267 274 282
183 184 187 190 192 196 195 202 205 211 213 212 209 213 211 213 219 226 230 234 236 239 241 243 243 247 249 249 254 268 251 271 257 226 224 223 223 226 234 246 277 284 285 280
180 180 184 184 189 191 195 199 202 209 211 214 213 213 208 214 223 230 237 240 239 236 239 246 245 244 248 253 256 263 271 272 254 221 200 204 222 237 243 247 282 284 278 278
171 173 180 182 191 193 194 196 198 205 210 217 222 227 222 223 228 235 243 251 254 245 247 249 255 259 260 261 251 243 246 247 207 184 202 218 228 243 260 292 283 279 280 284
170 170 178 182 189 194 198 201 205 211 218 217 224 228 226 229 236 238 238 245 252 253 247 251 252 256 261 264 262 260 262 275 225 211 228 246 269 280 279 284 280 280 282 282
176 174 178 181 189 194 197 204 211 215 220 221 229 243 242 239 237 240 240 248 251 247 243 246 249 254 262 279 267 259 261 264 257 272 275 280 252 246 267 281 269 276 277 283
161 175 181 194 193 198 202 202 206 217 219 225 229 232 240 234 228 232 234 242 237 222 229 243 248 257 255 286 271 268 262 255 269 271 267 263 242 273 277 276 275 280 286 291
140 175 178 184 193 198 206 200 207 211 217 222 223 224 222 218 211 218 223 234 235 221 227 236 256 261 251 264 268 271 266 278 278 269 262 248 266 269 270 276 280 282 283 289
161 165 197 194 186 181 191 186 195 200 204 213 228 219 232 227 221 210 216 219 222 210 216 233 242 255 247 250 256 250 242 251 255 258 250 254 261 266 274 277 280 283 290 293
148 156 192 197 190 191 189 191 187 174 184 191 192 189 207 201 210 202 212 214 206 217 210 220 225 221 229 238 237 235 239 242 250 248 250 263 268 274 277 281 281 286 290 294
208 150 195 193 203 197 193 201 193 186 194 192 203 190 215 199 194 202 215 209 205 219 224 222 205 219 218 217 228 250 255 254 261 268 265 258 256 268 272 272 276 283 289 290
196 201 175 175 191 207 214 214 206 196 197 198 193 211 205 202 201 207 210 223 231 230 233 228 230 237 230 231 256 272 260 263 270 270 279 279 278 274 264 267 284 286 288 293
220 210 194 188 197 203 215 208 220 218 207 203 202 219 215 212 204 199 211 222 229 236 232 236 237 243 232 253 267 266 266 273 276 280 264 266 278 277 285 290 294 292 292 290
216 219 202 169 176 187 194 209 222 230 229 214 210 221 204 204 194 193 218 232 233 237 248 248 250 245 245 256 259 264 270 270 264 264 258 274 288 280 283 288 285 286 289 295
198 214 202 182 185 194 187 198 211 220 232 233 227 238 216 164 178 203 214 226 243 248 243 245 252 249 253 257 258 258 262 270 265 266 268 276 283 283 277 274 276 285 286 298
232 194 184 200 204 195 202 202 202 217 210 206 218 189 209 224 228 219 223 235 236 245 243 235 251 250 254 250 252 254 262 266 256 259 267 277 269 268 276 280 282 289 290 298
251 181 203 201 210 199 203 217 208 214 220 230 209 167 199 236 224 237 217 267 212 215 233 245 252 257 259 259 265 257 256 253 254 258 269 267 262 269 277 281 288 296 298 303
215 204 211 203 193 202 204 207 210 216 228 228 233 189 180 240 256 199 196 211 196 209 215 234 254 262 260 263 259 258 256 255 258 262 263 273 275 279 283 280 288 291 300 304
222 224 208 204 204 201 215 210 221 216 223 235 226 226 217 234 240 246 235 242 220 220 227 243 301 303 286 288 260 261 249 255 259 259 261 267 276 280 282 286 294 297 297 296
211 211 224 213 194 204 211 221 222 221 221 222 224 219 232 277 257 262 240 230 226 231 238 244 242 263 285 315 10 246 264 252 246 247 254 271 277 283 289 291 294 292 292 296
213 206 224 226 217 203 229 213 219 222 222 221 227 245 246 271 236 204 222 217 218 226 237 242 254 270 281 276 252 233 249 254 252 264 271 279 283 286 288 290 290 291 294 299
221 224 227 224 225 220 213 214 204 210 221 221 218 218 210 211 211 211 216 218 226 239 251 257 267 275 280 280 276 270 261 260 265 267 269 274 282 286 285 285 286 294 302 306
216 226 225 228 222 236 215 207 193 205 186 201 195 205 212 207 203 213 223 233 240 250 255 259 263 265 269 263 260 261 262 264 264 268 274 278 284 287 291 294 302 302 302 303
Height
5621 5634 5650 5672 5683 5689 5701 5713 5725 5734 5741 5750 5766 5775 5781 5782 5788 5798 5800 5804 5812 5821 5825 5821 5827 5829 5818 5836 5840 5840 5848 5851 5856 5857 5860 5861 5864 5871 5876 5879 5880 5880 5879 5878
5617 5632 5650 5661 5670 5683 5695 5706 5718 5728 5736 5746 5757 5767 5770 5770 5780 5789 5791 5797 5802 5809 5816 5819 5818 5820 5828 5829 5836 5827 5829 5839 5845 5844 5847 5848 5857 5862 5863 5864 5868 5867 5871 5871
5619 5633 5643 5654 5665 5677 5690 5704 5713 5724 5729 5735 5747 5753 5759 5764 5772 5780 5782 5787 5793 5797 5806 5810 5816 5825 5823 5824 5832 5828 5800 5828 5826 5829 5836 5843 5849 5851 5854 5856 5857 5863 5866 5864
5620 5628 5639 5651 5664 5675 5688 5701 5706 5714 5718 5729 5737 5748 5753 5757 5765 5773 5779 5782 5786 5792 5795 5800 5808 5816 5819 5821 5827 5829 5816 5810 5803 5818 5828 5838 5842 5844 5848 5851 5856 5856 5857 5858
5622 5629 5639 5650 5662 5676 5688 5691 5700 5704 5711 5718 5723 5734 5748 5748 5755 5766 5773 5779 5780 5787 5790 5797 5803 5808 5811 5818 5824 5821 5811 5805 5799 5804 5821 5830 5833 5832 5842 5845 5847 5847 5848 5849
5625 5630 5641 5652 5660 5667 5675 5683 5692 5697 5702 5707 5719 5727 5739 5742 5756 5762 5766 5773 5775 5777 5781 5788 5795 5801 5805 5811 5817 5811 5807 5806 5812 5812 5815 5819 5824 5830 5834 5834 5836 5839 5842 5840
5627 5634 5643 5650 5659 5665 5672 5679 5686 5693 5697 5709 5718 5722 5739 5746 5750 5758 5763 5766 5769 5774 5777 5784 5791 5793 5795 5796 5806 5814 5814 5813 5808 5800 5810 5817 5823 5825 5824 5825 5830 5835 5834 5833
5631 5638 5644 5652 5659 5665 5672 5679 5687 5692 5699 5711 5708 5710 5735 5745 5742 5747 5752 5756 5760 5767 5774 5781 5782 5786 5788 5785 5794 5802 5809 5806 5802 5793 5813 5817 5816 5816 5820 5821 5826 5828 5826 5823
5634 5638 5644 5651 5656 5663 5669 5677 5684 5687 5692 5700 5706 5715 5724 5733 5735 5738 5746 5750 5752 5760 5768 5770 5774 5778 5784 5782 5789 5803 5807 5800 5798 5802 5805 5808 5812 5813 5816 5818 5818 5819 5817 5813
5637 5639 5643 5650 5653 5661 5666 5671 5674 5680 5688 5695 5702 5705 5711 5721 5729 5730 5738 5743 5747 5755 5761 5763 5766 5773 5782 5782 5785 5788 5794 5793 5794 5791 5795 5798 5803 5805 5808 5808 5809 5809 5808 5806
5639 5641 5645 5647 5652 5657 5659 5665 5671 5677 5684 5688 5694 5699 5707 5713 5719 5723 5731 5739 5742 5751 5755 5759 5764 5767 5776 5780 5780 5782 5785 5786 5787 5789 5792 5796 5799 5801 5800 5803 5804 5802 5800 5798
5641 5641 5643 5647 5654 5657 5661 5667 5670 5673 5680 5686 5690 5697 5703 5703 5710 5718 5726 5733 5737 5741 5747 5756 5761 5762 5768 5773 5777 5778 5779 5779 5780 5782 5787 5789 5791 5794 5796 5795 5794 5792 5789 5786
5642 5642 5644 5648 5652 5653 5659 5664 5668 5673 5679 5682 5687 5694 5692 5695 5703 5712 5722 5728 5731 5734 5744 5750 5755 5757 5764 5766 5770 5770 5773 5776 5777 5780 5784 5785 5785 5782 5782 5782 5781 5778 5777 5776
5642 5643 5644 5648 5655 5658 5661 5665 5668 5672 5677 5682 5687 5691 5691 5695 5703 5710 5715 5721 5728 5730 5735 5742 5747 5753 5759 5762 5763 5767 5769 5771 5773 5774 5773 5773 5776 5775 5774 5773 5772 5771 5769 5767
5640 5641 5643 5645 5649 5654 5661 5666 5669 5672 5676 5680 5687 5689 5690 5694 5699 5706 5712 5716 5722 5726 5730 5736 5742 5745 5749 5756 5757 5759 5763 5763 5764 5765 5766 5767 5767 5767 5763 5764 5765 5763 5761 5759
5641 5642 5644 5647 5649 5654 5659 5664 5668 5671 5676 5681 5684 5684 5690 5690 5697 5702 5707 5713 5718 5722 5729 5733 5737 5739 5743 5745 5747 5751 5753 5755 5754 5758 5757 5758 5758 5756 5757 5757 5754 5753 5753 5751
5638 5640 5644 5645 5646 5650 5654 5661 5667 5670 5674 5678 5682 5685 5687 5686 5693 5698 5707 5711 5714 5719 5722 5728 5732 5735 5736 5738 5741 5744 5746 5748 5750 5750 5750 5749 5751 5750 5750 5749 5748 5747 5747 5746
5637 5638 5642 5643 5646 5649 5658 5660 5664 5671 5673 5677 5679 5679 5687 5683 5691 5698 5704 5709 5709 5711 5714 5716 5719 5724 5728 5730 5733 5736 5739 5740 5742 5742 5743 5744 5744 5744 5743 5742 5741 5740 5738 5735
5635 5638 5641 5643 5646 5652 5655 5657 5662 5667 5673 5680 5674 5677 5686 5689 5692 5699 5701 5705 5707 5710 5711 5715 5717 5720 5722 5725 5727 5729 5732 5734 5734 5734 5736 5735 5736 5736 5735 5735 5734 5731 5729 5726
5632 5635 5640 5643 5646 5651 5653 5654 5661 5665 5669 5674 5676 5682 5689 5689 5690 5695 5700 5703 5704 5708 5707 5711 5713 5714 5715 5716 5718 5721 5723 5723 5726 5726 5729 5730 5729 5729 5728 5725 5724 5722 5720 5717
5634 5635 5637 5640 5643 5649 5651 5653 5656 5661 5669 5671 5677 5678 5684 5690 5693 5697 5699 5702 5704 5704 5706 5709 5709 5709 5710 5710 5710 5710 5711 5714 5716 5719 5721 5720 5720 5719 5719 5719 5717 5716 5713 5709
5632 5635 5638 5639 5643 5649 5649 5652 5656 5661 5664 5668 5675 5681 5685 5689 5693 5695 5696 5697 5700 5703 5704 5704 5703 5703 5702 5701 5700 5703 5706 5708 5710 5711 5713 5714 5713 5713 5713 5711 5710 5707 5704 5701
5629 5634 5636 5641 5644 5644 5648 5654 5656 5660 5666 5670 5673 5677 5682 5685 5686 5690 5693 5694 5698 5699 5700 5702 5704 5704 5703 5699 5697 5699 5704 5703 5706 5707 5708 5708 5708 5707 5707 5705 5703 5701 5699 5695
5626 5627 5632 5636 5639 5642 5646 5647 5655 5660 5663 5668 5673 5675 5678 5682 5682 5685 5689 5691 5694 5695 5697 5699 5699 5698 5698 5699 5700 5701 5701 5702 5702 5702 5702 5702 5702 5701 5700 5698 5697 5695 5691 5687
5622 5625 5629 5633 5636 5639 5643 5645 5650 5657 5661 5666 5671 5673 5678 5681 5683 5685 5688 5689 5690 5692 5693 5695 5695 5695 5695 5695 5696 5697 5698 5699 5697 5698 5698 5698 5697 5696 5695 5692 5690 5687 5682 5679
5618 5621 5625 5627 5634 5636 5640 5642 5646 5653 5657 5663 5666 5671 5675 5679 5681 5684 5686 5686 5687 5689 5690 5691 5692 5693 5694 5693 5693 5693 5693 5693 5694 5693 5693 5692 5691 5690 5687 5685 5681 5678 5675 5671